Wind_Speed
26 22 20 19 18 17 15 13 12 12 12 12 12 12 12 13 14 16 18 20 23 24 24 23 23 23 23 22 21 21 21 22 22 21 20 21 20 20 19 19 19 19
30 27 24 22 21 20 18 16 14 12 11 12 12 12 12 12 13 15 17 19 21 23 23 24 23 23 23 23 22 22 21 21 21 21 22 21 21 20 20 21 21 20
32 31 29 26 24 22 20 18 16 14 12 11 11 12 12 12 12 13 16 18 19 21 23 24 23 22 23 23 22 21 21 22 22 22 22 21 21 21 21 22 22 21
35 35 33 30 26 23 21 19 17 16 15 13 11 11 11 11 11 13 16 18 19 20 22 22 21 21 22 22 21 21 22 23 22 22 22 21 21 20 20 21 22 22
35 34 29 26 24 22 20 19 18 17 16 15 12 11 10 10 10 11 14 15 16 18 20 20 21 21 21 21 21 22 22 22 22 22 22 22 22 21 20 21 21 22
31 29 26 24 23 21 19 18 17 17 17 16 14 12 11 11 10 11 11 12 13 15 18 19 20 21 21 21 22 21 21 21 22 22 22 22 22 21 21 21 20 20
26 28 28 27 26 22 20 19 18 18 17 16 15 13 12 12 12 12 12 12 13 14 16 17 18 19 19 20 20 20 21 22 22 22 22 21 21 20 20 21 20 19
21 24 25 26 27 25 22 21 21 20 19 18 17 15 14 13 13 13 13 12 13 13 14 15 16 17 19 21 21 22 23 23 23 22 21 20 20 20 20 20 20 19
18 20 21 21 23 25 25 24 23 22 22 21 19 17 15 14 13 13 13 13 12 12 13 14 15 16 17 20 21 22 22 21 20 19 19 19 19 20 20 20 20 20
17 17 19 17 17 20 22 24 24 24 24 23 21 20 19 15 13 13 13 13 13 13 13 13 14 14 14 15 16 18 18 17 17 17 17 18 19 20 21 22 22 22
17 17 19 19 18 18 19 20 22 23 24 25 24 23 22 18 15 14 14 14 14 14 13 13 13 13 12 13 14 15 15 16 16 16 16 17 19 20 22 23 23 22
20 19 20 22 22 21 20 19 19 20 21 23 25 25 23 20 18 16 15 15 14 13 13 13 13 13 13 14 14 14 15 15 15 15 15 17 18 19 21 22 21 20
20 21 22 23 24 24 22 21 20 19 18 18 21 24 24 21 19 18 17 16 15 14 13 13 13 13 14 15 15 15 14 15 14 14 15 15 16 16 17 17 17 17
20 22 23 25 26 25 24 24 23 21 18 17 18 20 23 23 21 19 18 17 16 15 14 14 13 13 14 15 15 15 14 14 14 14 14 14 14 13 12 12 12 13
25 23 23 25 28 28 26 26 25 23 20 18 17 16 19 22 22 20 19 18 17 16 16 15 15 15 16 16 16 16 15 15 15 14 14 13 12 11 10 9 10 10
32 29 27 27 28 30 30 28 27 26 23 20 18 16 16 20 22 22 21 19 19 18 17 16 16 17 18 18 18 17 16 16 15 15 14 13 12 11 10 10 10 11
39 36 34 32 31 31 33 32 31 29 27 25 22 20 18 18 20 22 23 22 21 20 19 17 17 19 20 20 20 19 18 17 16 15 14 13 13 13 12 11 11 11
44 43 40 38 36 34 34 36 36 34 32 29 27 25 23 21 20 21 23 24 23 22 21 19 19 21 22 22 21 21 20 19 17 16 14 13 13 13 12 11 11 11
46 46 44 42 41 39 37 38 39 39 37 34 32 30 28 25 23 21 23 24 24 23 23 22 22 23 24 24 23 23 21 20 19 18 16 14 13 13 12 12 11 11
49 48 47 45 43 42 40 39 40 41 41 40 37 35 33 30 28 26 25 25 25 25 24 24 24 25 26 26 26 25 24 22 21 20 18 17 15 14 14 13 12 12
50 49 48 47 45 43 41 40 40 41 43 43 42 41 38 35 32 31 29 28 27 26 25 24 25 26 28 29 29 28 27 26 24 22 21 20 19 17 16 15 14 14
50 48 47 47 46 44 43 43 43 43 44 45 45 45 44 41 37 34 33 33 32 31 28 26 26 27 28 30 32 32 31 29 27 26 24 23 22 21 19 18 17 16
51 50 49 48 47 46 45 45 45 46 47 48 48 48 47 46 43 39 36 36 36 35 32 29 29 29 29 30 32 35 35 33 31 29 28 27 25 24 23 22 20 19
52 52 51 49 47 46 45 44 44 45 47 48 50 50 49 49 48 44 40 39 38 37 35 33 33 33 33 32 33 35 37 37 35 33 31 30 29 28 27 25 24 23
53 52 51 49 47 45 44 44 44 44 45 46 48 50 51 51 50 48 45 42 39 38 37 36 36 36 35 35 35 35 36 38 39 37 35 33 32 31 29 28 27 27
53 52 51 49 48 46 45 44 44 44 44 45 46 48 50 51 51 51 49 46 42 40 40 39 37 37 37 38 37 37 37 38 39 39 38 35 34 33 32 31 30 30
Wind_Direction
263 259 257 257 260 264 267 270 270 266 260 253 249 248 246 247 245 238 233 231 231 232 232 234 238 241 240 237 237 241 243 242 243 247 250 251 249 247 245 246 250 252
260 259 256 254 255 257 260 264 267 267 264 257 251 249 247 249 247 239 232 229 228 231 234 237 238 239 238 235 236 240 242 243 244 247 251 253 252 249 247 248 250 250
256 257 255 254 254 255 257 261 267 271 271 265 258 254 250 248 243 235 232 231 230 232 235 235 235 236 237 237 238 240 243 245 247 251 255 255 253 251 251 251 251 250
250 253 255 255 256 259 262 266 271 277 280 279 271 262 257 253 243 230 230 235 237 235 235 235 235 237 239 240 241 242 244 248 251 254 255 253 251 252 252 252 251 251
248 252 258 263 266 269 273 276 278 280 282 284 281 272 262 257 247 236 232 233 235 234 232 232 233 236 239 241 242 244 246 250 253 254 252 249 249 250 249 248 248 249
257 258 260 265 269 270 272 274 275 276 277 278 278 273 263 257 249 244 240 233 231 232 233 233 231 232 236 239 242 244 246 250 254 253 249 248 250 251 250 248 245 246
271 269 262 257 258 260 261 261 260 262 265 266 269 267 259 251 245 243 243 238 234 233 233 233 230 229 231 234 238 239 240 245 250 251 249 249 249 249 249 247 244 244
277 278 272 261 256 257 258 258 257 258 259 259 260 262 259 253 244 240 240 240 240 237 233 230 229 230 231 231 232 233 236 241 245 245 243 243 243 243 244 245 244 244
274 277 278 268 259 256 256 256 257 258 261 261 258 256 257 258 254 248 244 242 243 241 237 231 228 230 230 227 227 228 232 236 236 235 236 238 241 242 243 245 246 246
271 270 274 273 264 259 256 253 251 251 254 259 258 253 250 250 251 252 250 246 245 244 243 239 233 230 227 225 224 225 226 228 229 232 237 241 244 246 246 246 247 248
260 264 268 271 269 266 262 255 248 247 250 253 255 253 250 245 242 243 245 244 244 245 247 251 249 244 239 234 231 231 231 232 235 238 242 245 248 249 249 249 249 251
252 256 261 267 270 269 266 260 254 252 254 255 254 251 250 247 242 238 238 238 240 242 244 250 256 258 255 249 245 243 243 243 244 244 244 245 246 248 250 251 254 255
252 254 256 263 270 271 267 262 259 259 263 269 266 253 245 244 244 242 242 240 239 240 239 241 249 257 259 257 253 249 245 245 245 243 243 244 245 246 249 253 257 258
248 253 256 258 263 269 270 265 264 265 269 284 288 262 240 237 242 245 249 251 247 244 240 236 237 245 252 253 252 248 242 240 242 241 242 244 246 247 250 255 262 265
241 247 253 257 259 263 267 268 267 268 269 279 292 276 245 237 240 242 247 252 253 250 246 239 233 233 238 243 244 242 238 237 239 240 243 248 253 257 262 270 278 282
241 243 247 253 257 259 263 266 267 268 269 270 278 280 261 246 242 241 242 246 250 251 249 245 239 233 231 232 233 234 235 236 239 242 246 253 259 265 272 281 288 291
244 244 245 249 254 257 260 264 265 266 267 266 267 270 269 261 252 245 243 244 247 249 248 247 246 242 236 230 228 228 230 233 237 242 247 253 259 264 272 280 286 290
246 245 245 248 252 255 257 262 266 267 267 266 265 264 265 266 262 252 245 246 249 250 249 247 248 247 244 238 233 230 228 228 231 236 241 248 255 262 269 278 284 288
245 245 245 248 252 255 256 258 263 267 268 267 266 265 263 263 263 258 249 248 251 252 250 247 247 248 247 244 241 238 233 229 228 228 232 237 246 255 264 273 279 282
246 246 246 248 251 255 257 257 259 263 267 268 268 267 265 262 261 260 257 254 255 254 251 248 248 249 249 248 246 243 240 236 233 231 230 232 236 243 252 262 268 273
246 246 247 249 251 255 258 259 259 260 263 266 267 267 267 265 262 261 261 260 258 258 255 252 251 251 251 251 250 247 243 239 236 236 235 234 236 237 241 249 255 262
244 245 247 249 252 254 256 258 259 259 260 263 264 265 266 266 263 261 260 260 260 259 258 256 255 255 253 253 254 252 247 241 237 237 238 238 240 240 240 242 245 251
245 248 251 253 255 256 256 257 257 257 257 259 261 262 262 263 263 261 259 260 260 260 258 256 255 256 255 255 255 254 251 246 240 236 236 238 240 242 244 244 243 244
249 252 256 258 258 257 256 256 255 255 254 254 256 257 258 259 260 260 258 258 258 258 257 255 254 255 256 256 258 257 254 250 245 239 235 236 238 241 244 245 244 243
254 255 258 259 258 257 255 253 252 252 252 251 251 253 254 255 256 257 257 256 255 255 255 255 255 255 255 256 257 259 258 255 250 244 239 236 237 239 242 245 245 245
258 257 258 258 257 256 255 253 250 249 248 248 248 249 250 251 252 253 254 253 252 251 253 254 253 253 254 254 254 256 259 260 257 251 245 241 239 239 241 243 245 245
Height
5761 5760 5760 5760 5759 5759 5759 5759 5759 5759 5759 5759 5759 5759 5760 5760 5761 5762 5763 5764 5764 5766 5767 5769 5770 5771 5772 5773 5774 5776 5777 5778 5779 5780 5781 5781 5782 5783 5783 5784 5784 5785
5758 5758 5757 5757 5757 5757 5758 5758 5758 5758 5758 5758 5758 5758 5758 5759 5759 5760 5760 5761 5762 5764 5765 5766 5768 5769 5770 5771 5772 5773 5775 5776 5777 5778 5779 5780 5781 5782 5782 5782 5782 5783
5754 5754 5754 5754 5755 5756 5757 5757 5758 5758 5758 5758 5758 5758 5758 5758 5757 5758 5758 5759 5760 5761 5762 5763 5765 5767 5768 5769 5770 5771 5772 5774 5775 5776 5777 5779 5780 5780 5780 5781 5781 5781
5749 5748 5749 5751 5754 5756 5757 5758 5759 5759 5759 5759 5758 5758 5758 5758 5757 5757 5757 5757 5758 5759 5760 5761 5763 5765 5766 5767 5768 5769 5770 5772 5773 5775 5776 5777 5777 5778 5778 5779 5779 5780
5744 5746 5749 5752 5755 5756 5757 5758 5759 5759 5759 5759 5759 5758 5758 5758 5757 5756 5756 5757 5757 5758 5759 5760 5761 5762 5763 5765 5766 5767 5768 5770 5771 5773 5774 5774 5775 5775 5775 5776 5777 5778
5744 5747 5751 5753 5754 5755 5755 5756 5756 5757 5757 5757 5757 5757 5757 5757 5757 5757 5756 5756 5756 5757 5757 5758 5758 5759 5761 5762 5763 5764 5766 5768 5769 5770 5771 5772 5773 5773 5774 5775 5776 5777
5744 5746 5748 5750 5751 5751 5751 5752 5753 5753 5754 5754 5755 5755 5755 5755 5755 5756 5756 5755 5755 5755 5755 5755 5756 5757 5758 5759 5760 5762 5764 5765 5767 5768 5769 5770 5771 5772 5773 5773 5774 5776
5744 5744 5745 5747 5748 5748 5749 5749 5750 5751 5752 5752 5752 5753 5753 5753 5753 5754 5754 5754 5754 5754 5754 5753 5754 5754 5755 5757 5758 5760 5761 5763 5764 5765 5767 5768 5768 5769 5770 5771 5773 5774
5742 5742 5742 5743 5744 5745 5746 5747 5748 5749 5750 5750 5751 5751 5751 5752 5752 5752 5753 5753 5753 5753 5753 5753 5753 5753 5754 5755 5757 5758 5760 5761 5762 5763 5764 5766 5767 5768 5769 5769 5771 5772
5738 5740 5739 5740 5742 5742 5742 5743 5744 5746 5747 5747 5748 5749 5749 5749 5750 5751 5751 5752 5752 5752 5753 5753 5753 5753 5753 5754 5756 5757 5758 5759 5760 5762 5762 5764 5765 5766 5767 5767 5768 5769
5734 5736 5737 5737 5739 5740 5740 5740 5741 5743 5743 5744 5745 5746 5747 5747 5748 5748 5749 5749 5750 5751 5752 5752 5753 5753 5753 5754 5755 5756 5757 5758 5759 5760 5761 5762 5763 5764 5764 5765 5766 5767
5731 5733 5734 5735 5736 5737 5739 5739 5739 5740 5741 5741 5742 5743 5745 5746 5746 5745 5746 5746 5747 5748 5749 5750 5751 5752 5752 5753 5754 5754 5755 5756 5757 5758 5759 5761 5762 5763 5763 5764 5765 5766
5728 5730 5731 5732 5733 5734 5736 5737 5737 5738 5739 5739 5739 5740 5742 5744 5744 5744 5744 5744 5744 5745 5746 5747 5749 5750 5751 5752 5752 5753 5754 5754 5755 5756 5758 5759 5761 5762 5763 5763 5763 5764
5725 5727 5728 5730 5731 5731 5733 5734 5735 5736 5737 5737 5737 5737 5739 5741 5742 5743 5743 5743 5743 5743 5744 5745 5746 5747 5748 5749 5750 5751 5752 5753 5754 5755 5756 5757 5759 5760 5761 5762 5762 5762
5722 5724 5725 5727 5728 5729 5730 5731 5732 5734 5735 5736 5736 5735 5736 5738 5739 5741 5742 5743 5743 5742 5743 5743 5744 5744 5745 5746 5748 5749 5750 5751 5752 5753 5755 5755 5757 5758 5758 5759 5759 5759
5718 5720 5722 5723 5725 5726 5727 5728 5729 5730 5732 5734 5734 5734 5735 5736 5737 5739 5740 5741 5741 5741 5741 5742 5743 5742 5742 5743 5744 5746 5747 5749 5750 5751 5753 5754 5754 5755 5756 5756 5757 5758
5712 5715 5717 5719 5721 5723 5724 5724 5725 5727 5729 5731 5732 5732 5733 5734 5735 5736 5738 5738 5739 5739 5740 5741 5741 5741 5741 5741 5742 5743 5744 5746 5747 5749 5751 5752 5753 5754 5755 5755 5756 5756
5707 5710 5712 5714 5717 5719 5720 5721 5721 5723 5725 5727 5729 5730 5730 5731 5733 5734 5735 5736 5737 5737 5738 5739 5739 5740 5740 5741 5741 5741 5742 5743 5745 5746 5748 5750 5751 5752 5753 5754 5755 5756
5701 5704 5706 5709 5711 5714 5716 5717 5717 5718 5720 5722 5725 5726 5727 5729 5730 5731 5732 5733 5734 5734 5735 5736 5737 5738 5738 5739 5740 5741 5741 5742 5743 5744 5746 5747 5749 5750 5752 5753 5754 5754
5695 5698 5700 5703 5706 5708 5710 5713 5714 5714 5714 5716 5719 5721 5723 5725 5726 5728 5729 5730 5731 5731 5732 5733 5734 5735 5736 5737 5738 5739 5740 5742 5743 5743 5744 5745 5746 5748 5749 5751 5752 5753
5688 5691 5694 5696 5699 5702 5704 5706 5708 5710 5710 5711 5713 5715 5718 5720 5722 5724 5725 5726 5727 5728 5729 5731 5732 5733 5734 5735 5736 5737 5738 5740 5741 5743 5743 5744 5745 5746 5747 5748 5750 5751
5681 5684 5687 5690 5692 5695 5698 5700 5702 5704 5706 5707 5708 5709 5712 5714 5717 5719 5721 5722 5723 5724 5726 5728 5729 5729 5731 5732 5733 5734 5735 5737 5739 5740 5742 5743 5744 5745 5746 5747 5748 5749
5674 5677 5680 5683 5685 5688 5691 5693 5696 5698 5700 5701 5702 5704 5706 5708 5710 5713 5715 5717 5718 5720 5722 5724 5725 5725 5727 5728 5729 5730 5731 5733 5735 5736 5738 5740 5742 5744 5745 5746 5746 5747
5667 5670 5672 5675 5678 5681 5684 5686 5689 5691 5693 5695 5697 5698 5700 5702 5704 5706 5709 5711 5713 5715 5717 5719 5720 5720 5722 5723 5725 5726 5727 5729 5730 5732 5734 5737 5739 5741 5743 5744 5745 5746
5659 5662 5664 5667 5670 5673 5676 5679 5681 5684 5686 5689 5691 5692 5694 5696 5697 5700 5702 5705 5707 5709 5711 5714 5715 5716 5717 5719 5720 5721 5723 5725 5726 5729 5731 5733 5735 5737 5739 5741 5743 5744
5650 5654 5656 5659 5661 5664 5667 5670 5673 5676 5679 5681 5684 5686 5688 5689 5691 5693 5695 5698 5701 5704 5705 5707 5709 5710 5711 5713 5715 5716 5718 5720 5722 5724 5727 5729 5731 5732 5734 5736 5738 5740